Hourly Data Report for September 22, 2010

PETERBOROUGH AWOS
ONTARIO

44°14'00.000" N
78°22'00.000" W
191.40 m
6166420

Download Data

Hourly Data (September 2010)
Hourly Data Report for September 22, 2010
TIME
LST
Temp Definition
°C
Dew Point Definition
°C
Rel Hum Definition
%
Precip. Amount Definition
mm

Wind Dir Definition
10's deg

Wind Spd Definition
km/h
Visibility Definition
km
Stn Press Definition
kPa
Hmdx Definition


Wind Chill Definition


Weather Definition


00:00 18.2 16.8 92   LegendMM LegendMM 15.0 98.86     Rain
01:00 17.9 17.4 97   LegendMM LegendMM 3.7 98.79     Moderate Rain
02:00 18.0 17.6 98   LegendMM LegendMM 11.3 98.79     Rain
03:00 17.5 17.2 98   LegendMM LegendMM 12.9 98.88     Rain
04:00 17.3 17.3 100   LegendMM LegendMM 6.4 98.73     Rain
05:00 17.1 17.1 100   LegendMM LegendMM 15.0 98.84      
06:00 16.7 16.7 100   LegendMM LegendMM 12.9 98.89      
07:00 17.4 17.2 99   LegendMM LegendMM 15.0 99.07      
08:00 17.6 17.3 98   LegendMM LegendMM 8.0 99.14     Drizzle
09:00 18.2 18.0 99   LegendMM LegendMM 15.0 99.09      
10:00 19.4 17.6 89   LegendMM LegendMM 15.0 99.14      
11:00 19.4 16.7 84   LegendMM LegendMM 15.0 99.18      
12:00 20.5 16.0 75   LegendMM LegendMM 15.0 99.18 25    
13:00 21.1 14.0 64   LegendMM LegendMM 15.0 99.18      
14:00 20.5 13.7 65   LegendMM LegendMM 15.0 99.20      
15:00 19.7 13.0 65   LegendMM LegendMM 15.0 99.25      
16:00 20.1 12.5 62   LegendMM LegendMM 15.0 99.31      
17:00 19.3 11.2 59   LegendMM LegendMM 15.0 99.33      
18:00 17.5 10.3 63   LegendMM LegendMM 15.0 99.44      
19:00 15.4 8.9 65   LegendMM LegendMM 15.0 99.51      
20:00 14.2 8.1 67   LegendMM LegendMM 15.0 99.67      
21:00 13.4 8.8 74   LegendMM LegendMM 15.0 99.73      
22:00 8.7 7.7 93   LegendMM LegendMM 15.0 99.78      
23:00 8.6 8.2 97   LegendMM LegendMM 15.0 99.83      

Notes on Data Quality.

Legend

  • E = Estimated
  • M = Missing
  • NA = Not Available*
  • [empty] = Indicates an unobserved value
Date modified: